Location: Dallas
(32.7833°N, 96.8000°W)
Time: 21:16:02
(UTC-06:00)

Envisat - Pass Details

Date: 30 October 2019
Orbit: 764 x 766 km, 98.1° (Epoch: 13 November)

Event Time Altitude Azimuth Distance (km) Brightness Sun altitude
Rises 19:35:00 0° 166° (SSE) 3,216 6.2 -12.5°
Reaches altitude 10° 19:37:17 10° 166° (SSE) 2,293 5.4 -13.0°
Maximum altitude 19:42:21 90° 73° (ENE) 770 3.0 -14.0°
Drops below altitude 10° 19:47:27 10° 348° (NNW) 2,306 5.5 -15.1°
Sets 19:49:45 0° 348° (NNW) 3,235 6.3 -15.6°
